KENT RIDGE 1

Last updated on Wed Sep 17 2025 00:02:31 GMT+0000 (Coordinated Universal Time)

1 41167U 15077B 25259.30002345 .00004634 00000+0 17197-3 0 9993 2 41167 14.9794 139.4281 0009012 340.5731 19.4247 15.20618934539304
UTC large
Height (km)
Speed (km/s)
/
Latitude / Longitude
Inclination (degrees)
Orbital Period (minutes)
Azimuth
Elevation
Range (km)
Doppler Factor

Next 0 passes for location: London (51.5072 / 0.1276)

Sorry there are no passes over London.